Flag for U.S.A. Weather past 2 weeks in Billings, Montana, U.S.A.

Now
91 °F

Broken clouds.


Feels Like: 87 °F
Forecast: 59 / 96 °F
Wind: 12 mph from Southwest

Location: Billings Logan International Airport

Current Time: Sep 2, 2015 at 1:57:59 PM

Latest Report: Sep 2, 2015 at 12:53 PM


Visibility: 10 mi

Pressure: 29.63 "Hg (26.66 "Hg at 946m altitude)

Humidity: 12%

Dew point: 32 °F

Location of BillingsLocation

Historic Weather in Billings — Graph

°F

Billings temperature yesterday

Maximum temperature yesterday: 90 °F (at 4:53 PM)
Minimum temperature yesterday: 53 °F (at 6:53 AM)
Average temperature yesterday: 73 °F

Past Weeks' High & Low Weather Summary

 TemperatureHumidityPressure
High92 °F (Aug 25, 5:53 PM)89% (Aug 19, 5:53 AM)30.24 "Hg (Aug 19, 5:53 AM)
Low40 °F (Aug 23, 6:53 AM)10% (Sep 1, 4:53 PM)29.46 "Hg (Aug 21, 5:53 PM)
Average70 °F37%29.89 "Hg
* Reported Aug 18 12:53 PM — Sep 2 12:53 PM, Billings, Weather by CustomWeather, © 2015

Note: Actual official high and low records may vary slightly from our data, if they occured in-between our weather recording intervals... More about our weather records

Advertising

Billings weather history for previous 24 hours

 ConditionsComfort  
Time TempWeatherWind HumidityBarometerVisibility
12:53 PM
Wed, Sep 2
91 °FBroken clouds.12 mph12%29.63 "Hg10 mi
11:53 AM92 °FPartly sunny.20 mph12%29.63 "Hg10 mi
10:53 AM84 °FPartly sunny.7 mph24%29.66 "Hg10 mi
9:53 AM78 °FScattered clouds.8 mph25%29.65 "Hg10 mi
8:53 AM71 °FScattered clouds.8 mph28%29.67 "Hg10 mi
7:53 AM71 °FScattered clouds.9 mph25%29.67 "Hg10 mi
6:53 AM68 °FPassing clouds.12 mph25%29.65 "Hg10 mi
5:53 AM58 °FPassing clouds.10 mph46%29.67 "Hg10 mi
4:53 AM65 °FPassing clouds.12 mph28%29.66 "Hg10 mi
3:53 AM63 °FPassing clouds.10 mph34%29.66 "Hg10 mi
2:53 AM67 °FPassing clouds.12 mph29%29.66 "Hg10 mi
1:53 AM70 °FClear.12 mph25%29.66 "Hg10 mi
12:53 AM70 °FClear.13 mph25%29.67 "Hg10 mi
11:53 PM
Tue, Sep 1
68 °FClear.3 mph24%29.67 "Hg10 mi
10:53 PM72 °FClear.5 mph21%29.69 "Hg10 mi
9:53 PM78 °FClear.10 mph16%29.70 "Hg10 mi
8:53 PM81 °FPassing clouds.12 mph15%29.71 "Hg10 mi
7:53 PM81 °FPassing clouds.8 mph16%29.70 "Hg10 mi
6:53 PM87 °FPassing clouds.12 mph12%29.70 "Hg10 mi
5:53 PM90 °FPassing clouds.5 mph10%29.68 "Hg10 mi
4:53 PM90 °FPassing clouds.5 mph10%29.69 "Hg10 mi
2:53 PM88 °FPassing clouds.7 mph11%29.73 "Hg10 mi
1:53 PM88 °FPassing clouds.7 mph11%29.73 "Hg10 mi
Weather by CustomWeather, © 2015

See weather overviewHow to use our weather pages